This demonstration page uses our WeatherBlox Daily Observations layout. Learn more.

40.92945, -100.16068

Hourly Observations for December 16, 2017

Temp ( °F °C ) Dew Point ( °F °C ) Humidity (%) Winds ( mph kmh ) Pressure ( in mb ) Visibility ( mi km ) Precip ( " mm )
12:15 am 00:15 Clear 28 -2.4 15 -9.5 59 59 WSW 3 6 29.85 1011 10 16.09344 0 0
12:35 am 00:35 Clear 29 -1.8 15 -9.5 56 56 Calm 29.83 1010 10 16.09344 0 0
12:55 am 00:55 Clear 26 -3.5 15 -9.5 64 64 NW 5 7 29.85 1011 10 16.09344 0 0
1:15 am 01:15 Clear 25 -3.8 15 -9.2 66 66 NW 5 7 29.85 1011 10 16.09344 0 0
1:35 am 01:35 Clear 26 -3.3 15 -9.2 64 64 WNW 3 6 29.85 1011 10 16.09344 0 0
1:55 am 01:55 Clear 25 -3.7 16 -9.1 67 67 W 8 13 29.85 1011 10 16.09344 0 0
2:15 am 02:15 Clear 25 -3.9 15 -9.2 67 67 W 5 7 29.85 1011 10 16.09344 0 0
2:35 am 02:35 Clear 25 -3.7 16 -9.1 67 67 WNW 6 9 29.85 1011 10 16.09344 0 0
2:55 am 02:55 Clear 25 -4 15 -9.2 67 67 NW 6 9 29.85 1011 10 16.09344 0 0
3:15 am 03:15 Clear 24 -4.5 15 -9.4 69 69 NW 9 15 29.85 1011 10 16.09344 0 0
3:35 am 03:35 Clear 27 -2.9 17 -8.4 66 66 Calm 29.85 1011 10 16.09344 0 0
3:55 am 03:55 Clear 28 -2.2 17 -8.1 64 64 W 3 6 29.85 1011 10 16.09344 0 0
4:15 am 04:15 Clear 28 -2 19 -7.4 67 67 W 6 9 29.85 1011 10 16.09344 0 0
4:35 am 04:35 Clear 31 -0.7 19 -7 63 63 W 3 6 29.83 1010 10 16.09344 0 0
4:55 am 04:55 Clear 31 -0.5 19 -7 62 62 WNW 7 11 29.83 1010 10 16.09344 0 0
5:15 am 05:15 Clear 31 -0.5 19 -7.1 61 61 NW 6 9 29.83 1010 10 16.09344 0 0
5:35 am 05:35 Clear 30 -1.1 19 -7.3 63 63 WNW 3 6 29.83 1010 10 16.09344 0 0
5:55 am 05:55 Clear 28 -2.3 18 -7.7 67 67 WNW 9 15 29.85 1011 10 16.09344 0 0
6:15 am 06:15 Clear 29 -1.5 19 -7.2 66 66 WNW 8 13 29.83 1010 10 16.09344 0 0
6:35 am 06:35 Clear 30 -0.9 19 -7 64 64 WNW 7 11 29.85 1011 10 16.09344 0 0
6:55 am 06:55 Clear 31 -0.5 20 -6.8 63 63 WNW 7 11 29.85 1011 10 16.09344 0 0
7:15 am 07:15 Clear 31 -0.6 20 -6.5 65 65 WNW 8 13 29.85 1011 10 16.09344 0 0
7:35 am 07:35 Clear 32 0 20 -6.5 62 62 WNW 7 11 29.85 1011 10 16.09344 0 0
7:55 am 07:55 Clear 32 0 21 -6.3 63 63 WNW 7 11 29.85 1011 10 16.09344 0 0
8:15 am 08:15 Sunny 32 -0.2 21 -6.1 65 65 WNW 5 7 29.85 1011 10 16.09344 0 0
8:35 am 08:35 Sunny 32 0.2 22 -5.7 65 65 WNW 6 9 29.85 1011 10 16.09344 0 0
8:55 am 08:55 Sunny 35 1.5 22 -5.4 61 61 NW 5 7 29.88 1012 10 16.09344 0 0
9:15 am 09:15 Sunny 38 3.3 24 -4.4 57 57 N 6 9 29.85 1011 10 16.09344 0 0
9:35 am 09:35 Sunny 44 6.5 22 -5.4 43 43 NNE 10 17 29.83 1010 10 16.09344 0 0
9:55 am 09:55 Sunny 45 7 22 -5.4 41 41 NNE 8 13 29.83 1010 10 16.09344 0 0
10:15 am 10:15 Sunny 45 7.4 23 -5.2 41 41 NNE 8 13 29.85 1011 10 16.09344 0 0
10:35 am 10:35 Sunny 47 8.1 23 -4.8 40 40 NNE 9 15 29.85 1011 10 16.09344 0 0
10:55 am 10:55 Sunny 48 8.8 23 -4.9 38 38 NE 13 20 29.83 1010 10 16.09344 0 0
11:15 am 11:15 Sunny 49 9.5 23 -4.8 36 36 NE 16 26 29.83 1010 10 16.09344 0 0
11:35 am 11:35 Sunny 50 10.1 23 -4.8 35 35 NNE 15 24 29.83 1010 10 16.09344 0 0
11:55 am 11:55 Sunny 51 10.3 23 -5.2 33 33 NE 18 30 29.83 1010 10 16.09344 0 0
12:15 pm 12:15 Sunny 51 10.5 24 -4.5 35 35 NNE 17 28 29.83 1010 10 16.09344 0 0
12:35 pm 12:35 Sunny 51 10.6 26 -3.5 37 37 NE 20 31 29.83 1010 10 16.09344 0 0
12:55 pm 12:55 Sunny 51 10.6 26 -3.5 37 37 NNE 16 26 29.8 1009 10 16.09344 0 0
1:15 pm 13:15 Sunny 51 10.7 27 -3 38 38 NE 16 26 29.83 1010 10 16.09344 0 0
1:35 pm 13:35 Sunny 52 11 28 -2.5 39 39 NE 17 28 29.8 1009 10 16.09344 0 0
1:55 pm 13:55 Sunny 51 10.7 28 -2.3 40 40 NE 17 28 29.8 1009 10 16.09344 0 0
2:15 pm 14:15 Sunny 51 10.3 28 -2 43 43 NE 17 28 29.8 1009 10 16.09344 0 0
2:35 pm 14:35 Sunny 50 10.1 29 -1.6 44 44 NE 18 30 29.83 1010 10 16.09344 0 0
2:55 pm 14:55 Sunny 50 9.9 30 -0.9 47 47 NE 17 28 29.83 1010 10 16.09344 0 0
3:15 pm 15:15 Sunny 50 10.1 31 -0.6 48 48 NE 17 28 29.83 1010 10 16.09344 0 0
3:35 pm 15:35 Sunny 50 9.9 31 -0.7 48 48 NE 20 31 29.83 1010 10 16.09344 0 0
3:55 pm 15:55 Sunny 49 9.2 31 -0.8 50 50 NE 18 30 29.83 1010 10 16.09344 0 0
4:15 pm 16:15 Sunny 47 8.5 30 -1.2 51 51 NE 18 30 29.85 1011 10 16.09344 0 0
4:35 pm 16:35 Sunny 46 7.5 30 -1.2 54 54 NE 13 20 29.88 1012 10 16.09344 0 0
4:55 pm 16:55 Sunny 44 6.6 30 -1.3 57 57 NE 13 20 29.91 1013 10 16.09344 0 0
5:15 pm 17:15 Clear 43 5.9 29 -1.4 60 60 NE 12 19 29.91 1013 10 16.09344 0 0
5:35 pm 17:35 Clear 41 4.9 29 -1.6 63 63 NE 9 15 29.94 1014 10 16.09344 0 0
5:55 pm 17:55 Clear 38 3.5 28 -2.1 67 67 NE 8 13 29.94 1014 10 16.09344 0 0
6:15 pm 18:15 Clear 37 3 29 -1.8 71 71 NNE 9 15 29.97 1015 10 16.09344 0 0
6:35 pm 18:35 Clear 37 2.8 29 -1.6 73 73 NNE 8 13 30 1016 10 16.09344 0 0
6:55 pm 18:55 Clear 34 1.3 28 -2.3 77 77 N 6 9 30 1016 10 16.09344 0 0
7:15 pm 19:15 Clear 33 0.3 28 -2.2 84 84 NNE 8 13 30 1016 10 16.09344 0 0
7:35 pm 19:35 Clear 35 1.7 30 -1.2 81 81 NE 9 15 30 1016 10 16.09344 0 0
7:55 pm 19:55 Clear 35 1.8 30 -1.3 80 80 NE 12 19 30.03 1017 10 16.09344 0 0
8:15 pm 20:15 Clear 35 1.6 29 -1.4 81 81 NNE 13 20 30.03 1017 10 16.09344 0 0
8:35 pm 20:35 Clear 34 1.2 29 -1.6 82 82 NNE 12 19 30.03 1017 10 16.09344 0 0
8:55 pm 20:55 Clear 35 1.5 30 -1.2 82 82 NNE 13 20 30.03 1017 10 16.09344 0 0
9:15 pm 21:15 Clear 35 1.5 30 -1.2 82 82 NNE 13 20 30.03 1017 10 16.09344 0 0
9:35 pm 21:35 Partly Cloudy 35 1.6 30 -0.9 84 84 NNE 14 22 30.03 1017 10 16.09344 0 0
9:55 pm 21:55 Partly Cloudy 35 1.9 31 -0.5 84 84 NNE 12 19 30.03 1017 10 16.09344 0 0
10:15 pm 22:15 Partly Cloudy 35 1.9 31 -0.5 84 84 NNE 15 24 30.06 1018 10 16.09344 0 0
10:35 pm 22:35 Mostly Cloudy 36 2.2 32 0 86 86 NE 15 24 30.06 1018 10 16.09344 0 0
10:55 pm 22:55 Cloudy 36 2.3 32 0 85 85 NE 15 24 30.06 1018 10 16.09344 0 0
11:15 pm 23:15 Partly Cloudy 36 2 32 0 87 87 NE 14 22 30.06 1018 10 16.09344 0 0
11:35 pm 23:35 Clear 35 1.8 32 0 88 88 NNE 14 22 30.06 1018 10 16.09344 0 0
11:55 pm 23:55 Clear 35 1.6 32 -0.1 89 89 NNE 9 15 30.03 1017 10 16.09344 0 0

Powered by AerisWeather